FW3274 Weather Reports


Display with metric or nautical units.
time (UTC)temp
F
wind
direction
speed
MPH
gust
MPH
rain 1hr
in
rain 24hr
in
rain mn
in
humidity
%
barometer
mb
20260507174503 64 71 0.0 0.0 0.00 0.16 0.16 72 1010.2
20260507173104 65 84 0.0 0.0 0.00 0.16 0.16 70 1010.0
20260507171612 66 136 0.0 0.0 0.00 0.16 0.16 67 1009.9
20260507170100 67 144 0.0 0.0 0.00 0.16 0.16 67 1010.0
20260507164602 67 163 0.0 0.0 0.00 0.16 0.16 65 1010.0
20260507163158 67 71 0.0 1.0 0.00 0.16 0.16 61 1009.8
20260507161602 67 107 0.0 0.0 0.00 0.16 0.16 54 1009.8
20260507160058 69 114 0.0 0.0 0.00 0.16 0.16 55 1009.7
20260507154556 67 82 0.0 6.0 0.00 0.16 0.16 60 1009.7
20260507153103 69 157 0.0 6.0 0.00 0.16 0.16 61 1009.5
20260507151555 70 11 0.0 0.0 0.00 0.16 0.16 55 1009.2
20260507150055 70 10 0.0 0.0 0.00 0.24 0.16 56 1009.1
20260507144555 68 317 0.0 0.0 0.11 0.24 0.16 68 1009.0
20260507143055 67 57 0.0 0.0 0.16 0.24 0.16 68 1009.0
20260507141556 65 65 0.0 0.0 0.16 0.24 0.16 76 1009.1
20260507140104 60 45 0.0 0.0 0.16 0.37 0.16 82 1009.6
20260507134552 68 255 2.0 16.0 0.03 0.24 0.03 64 1010.1
20260507133055 70 244 0.0 0.0 0.00 0.21 0.00 55 1009.2
20260507131549 70 251 0.0 1.0 0.00 0.21 0.00 53 1009.2
20260507124611 72 246 0.0 5.0 0.00 0.23 0.00 53 1009.3
20260507123048 73 247 0.0 0.0 0.00 0.23 0.00 53 1009.3
20260507121546 72 236 0.0 4.0 0.00 0.23 0.00 50 1009.5
20260507120045 72 209 0.0 4.0 0.00 0.23 0.00 52 1009.4
20260507114605 71 257 2.0 8.0 0.00 0.23 0.00 51 1009.7
20260507113042 69 246 0.0 3.0 0.00 0.23 0.00 55 1009.6
20260507111542 70 244 0.0 6.0 0.00 0.23 0.00 54 1009.7
20260507110044 70 229 0.0 4.0 0.00 0.24 0.00 55 1009.8
20260507104548 70 240 0.0 6.0 0.00 0.24 0.00 57 1009.9
20260507103038 70 309 0.0 2.0 0.00 0.24 0.00 54 1010.1
20260507101536 68 238 1.0 4.0 0.00 0.24 0.00 60 1010.3
20260507100037 69 234 0.0 4.0 0.00 0.24 0.00 59 1010.2
20260507094533 68 227 0.0 1.0 0.00 0.24 0.00 64 1010.4
20260507093037 67 277 0.0 1.0 0.00 0.24 0.00 66 1010.4
20260507091538 65 228 0.0 2.0 0.00 0.24 0.00 63 1010.3
20260507090030 67 225 0.0 1.0 0.00 0.24 0.00 64 1010.3
20260507084532 67 283 0.0 0.0 0.00 0.24 0.00 66 1010.3
20260507083029 67 253 0.0 0.0 0.00 0.24 0.00 63 1010.2
20260507081526 65 207 0.0 0.0 0.00 0.24 0.00 70 1010.2
20260507080024 66 175 0.0 0.0 0.00 0.24 0.00 71 1010.2
20260507074524 65 178 0.0 0.0 0.00 0.24 0.00 69 1010.1
20260507073020 64 249 0.0 0.0 0.00 0.24 0.00 71 1010.0
20260507071520 63 242 0.0 0.0 0.00 0.24 0.00 70 1010.0
20260507070014 62 254 0.0 0.0 0.00 0.25 0.00 73 1009.9
20260507064513 61 321 0.0 0.0 0.00 0.25 0.00 74 1009.9
20260507063025 61 319 0.0 0.0 0.00 0.25 0.00 75 1009.8
20260507061511 62 307 0.0 0.0 0.00 0.25 0.00 75 1009.8
20260507060012 61 313 0.0 0.0 0.00 0.32 0.00 78 1009.8
20260507054503 59 312 0.0 0.0 0.00 0.32 0.00 82 1009.7
20260507053101 57 312 0.0 0.0 0.00 0.32 0.00 86 1009.6
20260507051602 56 311 0.0 0.0 0.00 0.32 0.00 88 1009.3
20260507050101 55 311 0.0 0.0 0.00 0.33 0.00 90 1009.3
20260507044555 54 311 0.0 0.0 0.00 0.33 0.00 90 1009.0
20260507043054 54 312 0.0 0.0 0.00 0.33 0.00 91 1008.9
20260507041552 53 331 0.0 0.0 0.00 0.33 0.00 90 1008.6
20260507040049 54 333 0.0 0.0 0.00 0.33 0.00 90 1008.6
20260507034547 55 52 0.0 0.0 0.00 0.33 0.00 90 1008.4
20260507033047 56 52 0.0 0.0 0.00 0.33 0.00 90 1008.4
20260507031546 57 52 0.0 0.0 0.00 0.33 0.00 91 1008.5
20260507030045 58 52 0.0 0.0 0.00 0.33 0.00 91 1008.5
20260507024544 57 52 0.0 0.0 0.00 0.33 0.00 91 1008.4
20260507023043 57 46 0.0 0.0 0.00 0.33 0.00 90 1008.3
20260507021544 57 75 0.0 0.0 0.00 0.33 0.00 90 1008.3
20260507020045 57 69 0.0 0.0 0.00 0.33 0.00 91 1008.4
20260507014550 57 69 0.0 0.0 0.00 0.33 0.00 92 1008.6
20260507013050 56 69 0.0 0.0 0.00 0.33 0.00 92 1008.6
20260507011540 56 69 0.0 0.0 0.00 0.33 0.00 92 1008.4
20260507010052 56 69 0.0 0.0 0.00 0.33 0.00 92 1008.5
20260507004539 55 80 0.0 0.0 0.00 0.33 0.00 92 1008.4
20260507003039 55 80 0.0 0.0 0.00 0.33 0.00 92 1008.3
20260507001538 55 80 0.0 0.0 0.00 0.33 0.00 91 1008.3
20260507000036 55 80 0.0 0.0 0.00 0.33 0.00 91 1008.3
20260506234537 56 80 0.0 0.0 0.00 0.33 0.00 90 1008.3
20260506233053 56 80 0.0 0.0 0.00 0.33 0.00 90 1008.4
20260506231536 56 80 0.0 0.0 0.00 0.33 0.00 89 1008.5
20260506230030 57 80 0.0 0.0 0.00 0.33 0.00 89 1008.4
20260506224530 57 80 0.0 0.0 0.00 0.33 0.00 89 1008.2
20260506223028 57 80 0.0 0.0 0.00 0.33 0.00 89 1008.3
20260506221526 57 80 0.0 0.0 0.00 0.33 0.00 89 1008.4
20260506220028 58 80 0.0 0.0 0.00 0.33 0.33 88 1008.3
20260506214517 58 80 0.0 0.0 0.00 0.33 0.33 88 1008.4
20260506213013 58 80 0.0 0.0 0.00 0.33 0.33 88 1008.3
20260506211513 59 80 0.0 0.0 0.00 0.33 0.33 88 1008.3
20260506210011 59 80 0.0 0.0 0.00 0.33 0.33 88 1008.3
20260506204601 59 80 0.0 0.0 0.00 0.33 0.33 88 1008.2
20260506203056 58 80 0.0 0.0 0.00 0.33 0.33 88 1008.2
20260506201552 59 80 0.0 0.0 0.00 0.33 0.33 87 1008.1
20260506200049 59 80 0.0 0.0 0.00 0.33 0.33 87 1008.0
20260506194548 59 80 0.0 0.0 0.00 0.33 0.33 87 1007.8
20260506193038 59 82 0.0 0.0 0.00 0.33 0.33 88 1007.7
20260506191534 59 84 0.0 0.0 0.00 0.33 0.33 88 1007.7
20260506190030 59 83 0.0 0.0 0.00 0.34 0.33 87 1007.6
20260506184526 59 83 0.0 0.0 0.00 0.34 0.33 87 1007.3
20260506183021 60 82 0.0 0.0 0.00 0.34 0.33 87 1007.4
20260506181519 60 82 0.0 0.0 0.00 0.34 0.33 87 1007.3
20260506180017 60 69 0.0 0.0 0.00 0.36 0.33 87 1007.2